Flag for Germany Weather past 2 weeks in Peine, Lower Saxony, Germany

Now
61 °F

Scattered clouds.


Feels Like: 61 °F
Forecast: 48 / 69 °F
Wind: 8 mph from West

Location: Braunschweig

Current Time: Aug 20, 2014 at 3:52:21 PM

Latest Report: Aug 20, 2014 at 3:20 PM


Visibility: N/A

Pressure: 29.95 "Hg

Humidity: 55%

Dew point: 45 °F

Location of PeineLocation

Historic Weather in Peine — Graph

°F

Peine temperature yesterday

Maximum temperature yesterday: 63 °F (at 1:20 PM)
Minimum temperature yesterday: 54 °F (at 6:50 AM)
Average temperature yesterday: 56 °F

Past Weeks' High & Low Weather Summary

 TemperatureHumidityPressure
High81 °F (Aug 8, 5:20 PM)100% (Aug 5, 2:20 PM)30.09 "Hg (Aug 5, 2:20 PM)
Low48 °F (Aug 20, 6:50 AM)33% (Aug 11, 4:50 PM)29.59 "Hg (Aug 18, 1:50 PM)
Average65 °F70%29.85 "Hg
* Reported Aug 5 2:20 PM — Aug 20 2:50 PM, Peine, Weather by CustomWeather, © 2014

Note: Actual official high and low records may vary slightly from our data, if they occured in-between our weather recording intervals... More about our weather records

Advertising

Peine weather history for previous 24 hours

 ConditionsComfort  
Time TempWeatherWind HumidityBarometerVisibility
2:50 PM
Aug 20
61 °FSprinkles. Scattered clouds.13 mph55%29.95 "HgN/A
2:20 PM64 °FScattered clouds.14 mph52%29.95 "HgN/A
1:50 PM63 °FScattered clouds.13 mph56%29.95 "HgN/A
1:20 PM61 °FScattered clouds.13 mph59%29.95 "HgN/A
12:50 PM61 °FScattered clouds.16 mph59%29.95 "HgN/A
12:20 PM61 °FScattered clouds.15 mph63%29.95 "HgN/A
11:50 AM59 °FScattered clouds.14 mph63%29.95 "HgN/A
11:20 AM57 °FScattered clouds.14 mph72%29.95 "HgN/A
10:50 AM59 °FScattered clouds.13 mph68%29.95 "HgN/A
10:20 AM57 °FScattered clouds.16 mph77%29.95 "HgN/A
9:50 AM57 °FPassing clouds.13 mph77%29.95 "HgN/A
9:20 AM55 °FPassing clouds.12 mph77%29.95 "HgN/A
8:50 AM54 °FPassing clouds.15 mph82%29.92 "HgN/A
8:20 AM52 °FPassing clouds.12 mph88%29.92 "HgN/A
7:50 AM52 °FPassing clouds.10 mph88%29.92 "HgN/A
7:20 AM50 °FPassing clouds.8 mph88%29.92 "HgN/A
6:50 AM48 °FPassing clouds.8 mph94%29.89 "HgN/A
9:50 PM
Aug 19
54 °FClear.12 mph88%29.83 "Hg10 mi
9:20 PM54 °FSunny.12 mph88%29.83 "Hg10 mi
8:50 PM54 °FSunny.12 mph88%29.80 "Hg10 mi
8:20 PM54 °FSunny.13 mph88%29.80 "Hg10 mi
7:50 PM54 °FSunny.13 mph88%29.80 "Hg10 mi
7:20 PM54 °FSunny.7 mph88%29.80 "Hg10 mi
6:50 PM54 °FSunny.9 mph88%29.80 "Hg10 mi
6:20 PM54 °FBroken clouds.10 mph88%29.80 "HgN/A
5:50 PM54 °FBroken clouds.9 mph94%29.80 "HgN/A
5:20 PM54 °FLight rain. Broken clouds.9 mph94%29.80 "HgN/A
4:50 PM54 °FLight rain. Mostly cloudy.8 mph94%29.80 "HgN/A
4:20 PM57 °FRain showers. More clouds than sun.13 mph100%29.83 "Hg3 mi
3:50 PM59 °FScattered showers. Partly sunny.8 mph88%29.80 "Hg5 mi
3:20 PM59 °FPartly sunny.8 mph88%29.80 "HgN/A
Weather by CustomWeather, © 2014

See weather overviewHow to use our weather pages